Location: Beaurevoir
(49.9971°N, 3.3085°E)
Time: 21:10:28
(UTC+00:00)

FENGYUN 3A - Pass Details

Date: 23 May 2024
Orbit: 821 x 835 km, 98.6° (Epoch: 16 June)

Event Time Altitude Azimuth Distance (km) Brightness Sun altitude
Rises 02:14:21 0° 15° (NNE) 3,372 8.3 -11.9°
Reaches altitude 10° 02:16:43 10° 17° (NNE) 2,434 7.4 -11.7°
Maximum altitude 02:22:07 78° 104° (ESE) 846 3.8 -11.1°
Enters shadow 02:27:28 10° 191° (S) 2,413 5.5 -10.6°
